DW2047 Weather Reports


Display with metric or nautical units.
time (UTC)temp
F
wind
direction
speed
MPH
gust
MPH
rain 1hr
in
rain 24hr
in
rain mn
in
humidity
%
barometer
mb
20210513091507 58 341 2.0 0.0 0.00 0.00 0.01 95 1026.0
20210513091013 58 341 1.0 0.0 0.00 0.00 0.01 95 1026.0
20210513090506 58 341 1.0 0.0 0.00 0.00 0.01 95 1026.0
20210513090015 58 341 1.0 0.0 0.00 0.00 0.01 95 1026.0
20210513085505 58 341 1.0 0.0 0.00 0.00 0.01 95 1026.1
20210513085004 58 341 1.0 0.0 0.00 0.00 0.01 95 1026.2
20210513084514 58 341 1.0 0.0 0.00 0.00 0.01 95 1026.2
20210513084011 58 341 1.0 0.0 0.00 0.00 0.01 95 1026.2
20210513083512 58 341 2.0 0.0 0.00 0.00 0.01 95 1026.3
20210513083041 58 341 2.0 0.0 0.00 0.00 0.01 95 1026.3
20210513082511 58 341 1.0 0.0 0.00 0.00 0.01 95 1026.3
20210513082011 58 341 0.0 0.0 0.00 0.00 0.01 95 1026.3
20210513081527 58 341 1.0 0.0 0.00 0.00 0.01 95 1026.4
20210513081006 58 341 1.0 0.0 0.00 0.00 0.01 95 1026.5
20210513080511 58 341 1.0 0.0 0.00 0.00 0.01 95 1026.4
20210513080017 58 341 1.0 0.0 0.00 0.00 0.01 95 1026.4
20210513075506 58 341 1.0 0.0 0.00 0.00 0.01 95 1026.5
20210513075006 58 341 1.0 0.0 0.00 0.00 0.01 95 1026.6
20210513074527 58 341 1.0 0.0 0.00 0.00 0.01 95 1026.5
20210513074010 58 341 1.0 0.0 0.00 0.00 0.01 95 1026.6
20210513073515 58 341 1.0 0.0 0.00 0.00 0.01 95 1026.6
20210513073022 58 341 1.0 0.0 0.00 0.00 0.01 95 1026.6
20210513072536 58 341 1.0 0.0 0.00 0.00 0.01 95 1026.6
20210513072019 58 341 2.0 0.0 0.00 0.00 0.01 95 1026.6
20210513071504 58 341 1.0 0.0 0.00 0.00 0.01 95 1026.6
20210513071003 58 341 1.0 0.0 0.00 0.00 0.01 95 1026.6
20210513070508 58 341 1.0 0.0 0.00 0.00 0.01 95 1026.7
20210513070034 58 341 1.0 0.0 0.00 0.00 0.01 95 1026.8
20210513065006 58 341 2.0 0.0 0.00 0.00 0.01 95 1026.8
20210513064513 58 341 2.0 0.0 0.00 0.00 0.01 95 1026.9
20210513064010 58 341 1.0 0.0 0.00 0.00 0.01 95 1026.9
20210513063504 58 341 1.0 0.0 0.00 0.00 0.01 95 1026.9
20210513063008 58 341 1.0 0.0 0.00 0.00 0.01 95 1026.9
20210513062507 58 341 1.0 0.0 0.00 0.00 0.01 95 1026.9
20210513062025 58 341 1.0 0.0 0.00 0.00 0.01 94 1026.9
20210513061533 58 341 1.0 0.0 0.00 0.00 0.01 94 1026.9
20210513061035 58 341 1.0 0.0 0.00 0.00 0.01 95 1027.0
20210513060528 58 341 1.0 0.0 0.00 0.00 0.01 95 1027.0
20210513060014 58 341 1.0 0.0 0.00 0.00 0.01 95 1027.0
20210513055516 58 341 1.0 0.0 0.00 0.00 0.01 94 1027.1
20210513055011 58 340 1.0 0.0 0.00 0.00 0.01 94 1027.0
20210513054607 58 340 1.0 0.0 0.00 0.00 0.01 94 1027.0
20210513054033 58 340 2.0 0.0 0.00 0.00 0.01 94 1027.0
20210513053527 58 340 2.0 0.0 0.00 0.00 0.01 94 1026.9
20210513053021 58 340 2.0 0.0 0.00 0.00 0.01 94 1027.0
20210513052528 58 355 3.0 0.0 0.00 0.00 0.01 94 1027.0
20210513052012 58 360 3.0 0.0 0.00 0.00 0.01 94 1026.9
20210513051517 59 63 4.0 0.0 0.00 0.00 0.01 93 1027.0
20210513051013 59 36 4.0 0.0 0.00 0.00 0.01 93 1027.0
20210513050514 59 32 2.0 0.0 0.00 0.00 0.00 93 1027.0
20210513050043 59 43 2.0 0.0 0.00 0.00 0.00 93 1026.9
20210513045515 59 350 3.0 0.0 0.00 0.00 0.00 93 1026.8
20210513045040 59 350 3.0 0.0 0.00 0.00 0.00 93 1026.8
20210513044515 59 318 3.0 0.0 0.00 0.00 0.00 92 1026.7
20210513044012 59 335 3.0 0.0 0.00 0.00 0.00 92 1026.7
20210513043513 59 355 4.0 0.0 0.00 0.00 0.00 92 1026.6
20210513043012 59 320 4.0 0.0 0.00 0.00 0.00 91 1026.6
20210513042521 59 334 4.0 0.0 0.00 0.00 0.00 91 1026.6
20210513042029 60 331 3.0 0.0 0.00 0.00 0.00 91 1026.5
20210513041551 60 319 2.0 0.0 0.00 0.00 0.00 90 1026.4
20210513041012 60 317 3.0 0.0 0.00 0.00 0.00 90 1026.4
20210513040522 60 323 3.0 0.0 0.00 0.00 0.00 89 1026.4
20210513035506 60 327 4.0 0.0 0.00 0.00 0.00 89 1026.2
20210513035009 60 327 4.0 0.0 0.00 0.00 0.00 88 1026.2
20210513034536 61 343 4.0 0.0 0.00 0.00 0.00 88 1026.2
20210513034009 61 321 4.0 0.0 0.00 0.00 0.00 87 1026.1
20210513033509 61 303 4.0 0.0 0.00 0.00 0.00 87 1026.0
20210513033003 61 5 4.0 0.0 0.00 0.00 0.00 86 1026.1
20210513032510 61 350 4.0 0.0 0.00 0.00 0.00 86 1026.0
20210513032008 61 317 4.0 0.0 0.00 0.00 0.00 86 1026.0
20210513031552 61 319 3.0 0.0 0.00 0.00 0.00 86 1026.0
20210513031014 61 342 3.0 0.0 0.00 0.00 0.00 85 1025.9
20210513030516 62 351 3.0 0.0 0.00 0.00 0.00 85 1025.9
20210513030027 62 317 2.0 0.0 0.00 0.00 0.00 85 1025.8
20210513025514 62 339 2.0 0.0 0.00 0.00 0.00 85 1025.9
20210513025013 62 344 2.0 0.0 0.00 0.00 0.00 85 1025.8
20210513024514 62 355 2.0 0.0 0.00 0.00 0.00 85 1025.7
20210513024040 62 348 2.0 0.0 0.00 0.00 0.00 85 1025.7
20210513023515 62 346 3.0 0.0 0.00 0.00 0.00 84 1025.6
20210513023022 62 348 2.0 0.0 0.00 0.00 0.00 84 1025.5
20210513020018 62 355 2.0 0.0 0.00 0.00 0.00 85 1025.1
20210513015512 62 355 2.0 0.0 0.00 0.00 0.00 85 1025.1
20210513015028 62 355 2.0 0.0 0.00 0.00 0.00 84 1025.0
20210513014519 62 355 2.0 0.0 0.00 0.00 0.00 84 1024.9
20210513014013 62 355 2.0 0.0 0.00 0.00 0.00 84 1024.9
20210513013530 62 355 2.0 0.0 0.00 0.00 0.00 84 1024.8
20210513013024 62 346 2.0 0.0 0.00 0.00 0.00 83 1024.8
20210513012005 62 355 2.0 0.0 0.00 0.00 0.00 83 1024.6
20210513011508 62 351 2.0 0.0 0.00 0.00 0.00 83 1024.5
20210513011005 62 51 2.0 0.0 0.00 0.00 0.00 83 1024.5
20210513010515 63 360 2.0 0.0 0.00 0.00 0.00 83 1024.5
20210513010013 63 355 3.0 0.0 0.00 0.00 0.00 82 1024.4
20210513005524 63 360 2.0 0.0 0.00 0.00 0.00 82 1024.5
20210513005013 63 346 2.0 0.0 0.00 0.00 0.00 82 1024.3
20210513004051 63 345 3.0 0.0 0.00 0.00 0.00 81 1024.1
20210513002033 63 329 4.0 0.0 0.00 0.00 0.00 80 1023.8
20210513001615 64 355 4.0 0.0 0.00 0.00 0.00 80 1023.7
20210513001057 64 346 3.0 0.0 0.00 0.00 0.00 79 1023.6
20210513000612 64 32 3.0 0.0 0.00 0.00 0.00 80 1023.5
20210513000123 64 350 3.0 0.0 0.00 0.00 0.00 79 1023.4
20210512235559 64 32 4.0 0.0 0.00 0.00 0.00 79 1023.5
20210512234504 64 360 3.0 0.0 0.00 0.00 0.00 79 1023.5
20210512234007 64 342 3.0 0.0 0.00 0.00 0.00 79 1023.5
20210512233512 64 336 2.0 0.0 0.00 0.00 0.00 79 1023.4
20210512232507 64 308 5.0 0.0 0.00 0.00 0.00 78 1023.4
20210512231534 65 340 4.0 0.0 0.00 0.00 0.00 78 1023.3
20210512231008 65 332 4.0 0.0 0.00 0.00 0.00 77 1023.3
20210512225558 65 341 5.0 0.0 0.00 0.00 0.00 78 1023.1
20210512224500 65 355 6.0 0.0 0.00 0.00 0.00 77 1023.2
20210512224052 65 302 5.0 0.0 0.00 0.00 0.00 76 1023.2
20210512223543 66 327 5.0 0.0 0.00 0.00 0.00 77 1023.2
20210512223100 66 321 5.0 0.0 0.00 0.00 0.00 76 1023.1
20210512222553 66 5 5.0 0.0 0.00 0.00 0.00 76 1023.2
20210512222117 66 349 5.0 0.0 0.00 0.00 0.00 76 1023.2
20210512221714 66 312 6.0 0.0 0.00 0.00 0.00 76 1023.2
20210512220506 67 324 4.0 0.0 0.00 0.00 0.00 76 1023.0
20210512215011 67 344 4.0 0.0 0.00 0.00 0.00 75 1023.1
20210512214654 67 324 4.0 0.0 0.00 0.00 0.00 76 1023.2
20210512214047 66 346 6.0 0.0 0.00 0.00 0.00 76 1023.2
20210512213552 66 28 6.0 0.0 0.00 0.00 0.00 75 1023.3
20210512213201 67 329 6.0 0.0 0.00 0.00 0.00 75 1023.2
20210512212638 67 331 6.0 0.0 0.00 0.00 0.00 74 1023.2
20210512212012 68 329 6.0 0.0 0.00 0.00 0.00 74 1023.2
20210512211521 68 341 5.0 0.0 0.00 0.00 0.00 72 1023.2
20210512211004 69 306 4.0 0.0 0.00 0.00 0.00 74 1023.2
20210512210512 68 325 5.0 0.0 0.00 0.00 0.00 74 1023.4
20210512210013 68 336 4.0 0.0 0.00 0.00 0.00 74 1023.5
20210512204505 67 355 6.0 0.0 0.00 0.00 0.00 76 1023.8
20210512204011 67 323 6.0 0.0 0.00 0.00 0.00 76 1023.8
20210512203515 66 316 5.0 0.0 0.00 0.00 0.00 77 1023.9
20210512202506 67 321 5.0 0.0 0.00 0.00 0.00 77 1024.0
20210512202013 67 304 6.0 0.0 0.00 0.00 0.00 76 1024.1
20210512201004 66 336 5.0 0.0 0.00 0.00 0.00 77 1024.2
20210512200600 66 321 6.0 0.0 0.00 0.00 0.00 76 1024.2
20210512195504 67 355 5.0 0.0 0.00 0.00 0.00 76 1024.4
20210512195005 67 9 5.0 0.0 0.00 0.00 0.00 75 1024.5
20210512194656 66 293 5.0 0.0 0.00 0.00 0.00 76 1024.4
20210512193504 66 348 6.0 0.0 0.00 0.00 0.00 77 1024.7
20210512193013 66 311 5.0 0.0 0.00 0.00 0.00 77 1024.8
20210512192601 66 311 5.0 0.0 0.00 0.00 0.00 76 1024.7
20210512192004 66 360 5.0 0.0 0.00 0.00 0.00 77 1024.7
20210512191509 66 332 5.0 0.0 0.00 0.00 0.00 77 1024.6
20210512191005 65 340 6.0 0.0 0.00 0.00 0.00 79 1024.7
20210512190510 65 296 6.0 0.0 0.00 0.00 0.00 80 1024.7
20210512185503 65 312 5.0 0.0 0.00 0.00 0.00 79 1024.8
20210512185028 65 336 5.0 0.0 0.00 0.00 0.00 78 1024.8
20210512184521 65 321 5.0 0.0 0.00 0.00 0.00 80 1024.9
20210512184014 65 344 5.0 0.0 0.00 0.00 0.00 80 1024.8
20210512183512 64 331 4.0 0.0 0.00 0.00 0.00 81 1024.9
20210512182504 64 326 5.0 0.0 0.00 0.00 0.00 81 1025.0
20210512182008 64 333 5.0 0.0 0.00 0.00 0.00 82 1025.1
20210512181509 63 325 5.0 0.0 0.00 0.00 0.00 83 1025.1
20210512181007 63 306 5.0 0.0 0.00 0.00 0.00 83 1025.1
20210512180533 63 315 4.0 0.0 0.00 0.00 0.00 85 1025.2
20210512175002 62 348 4.0 0.0 0.00 0.00 0.00 83 1025.2
20210512174540 62 351 4.0 0.0 0.00 0.00 0.00 85 1025.2
20210512174012 62 317 5.0 0.0 0.00 0.00 0.00 86 1025.3
20210512173518 61 344 5.0 0.0 0.00 0.00 0.00 85 1025.3
20210512173004 61 324 5.0 0.0 0.00 0.00 0.00 85 1025.3
20210512172511 61 329 4.0 0.0 0.00 0.00 0.00 85 1025.2
20210512172013 61 350 3.0 0.0 0.00 0.00 0.00 86 1025.2
20210512171007 60 303 4.0 0.0 0.00 0.00 0.00 87 1025.2
20210512170516 60 324 5.0 0.0 0.00 0.00 0.00 87 1025.4
20210512165505 60 323 4.0 0.0 0.00 0.00 0.00 87 1025.4
20210512165008 60 346 4.0 0.0 0.00 0.00 0.00 87 1025.4
20210512164640 60 340 4.0 0.0 0.00 0.00 0.00 88 1025.4
20210512164111 60 32 4.0 0.0 0.00 0.00 0.00 88 1025.3
20210512163005 60 328 5.0 0.0 0.00 0.00 0.00 88 1025.1
20210512162509 60 309 6.0 0.0 0.00 0.00 0.00 89 1025.1
20210512162003 59 350 5.0 0.0 0.00 0.00 0.00 89 1025.0
20210512161505 59 355 6.0 0.0 0.00 0.00 0.00 89 1025.0
20210512161011 60 336 5.0 0.0 0.00 0.00 0.00 88 1025.0
20210512160520 59 310 5.0 0.0 0.00 0.00 0.00 90 1024.9
20210512155508 59 11 6.0 0.0 0.00 0.00 0.00 90 1024.8
20210512155007 59 360 5.0 0.0 0.00 0.00 0.00 89 1024.8
20210512154648 59 316 6.0 0.0 0.00 0.00 0.00 90 1024.8
20210512154002 59 334 7.0 0.0 0.00 0.00 0.00 89 1024.8
20210512153511 59 300 5.0 0.0 0.00 0.00 0.00 89 1024.7
20210512152002 59 21 5.0 0.0 0.00 0.00 0.00 90 1024.6
20210512151515 59 348 5.0 0.0 0.00 0.00 0.00 90 1024.7
20210512151001 58 333 5.0 0.0 0.00 0.00 0.00 91 1024.8
20210512150507 58 334 5.0 0.0 0.00 0.00 0.00 91 1024.7
20210512150018 58 336 5.0 0.0 0.00 0.00 0.00 92 1024.7
20210512145005 58 341 4.0 0.0 0.00 0.00 0.00 91 1024.8
20210512144508 58 355 4.0 0.0 0.00 0.00 0.00 92 1024.8
20210512144006 58 360 6.0 0.0 0.00 0.00 0.00 92 1024.7
20210512143525 58 355 6.0 0.0 0.00 0.00 0.00 92 1024.6
20210512143038 58 355 4.0 0.0 0.00 0.00 0.00 92 1024.7
20210512142512 58 351 4.0 0.0 0.00 0.00 0.00 93 1024.5
20210512141008 58 44 5.0 0.0 0.00 0.00 0.00 93 1024.4
20210512140506 58 329 5.0 0.0 0.00 0.00 0.00 93 1024.3
20210512140009 57 309 5.0 0.0 0.00 0.00 0.00 94 1024.3
20210512135532 58 333 4.0 0.0 0.00 0.00 0.00 94 1024.2
20210512134504 57 320 5.0 0.0 0.00 0.00 0.00 94 1024.0
20210512134012 57 326 5.0 0.0 0.00 0.00 0.00 94 1024.0
20210512133502 57 346 5.0 0.0 0.00 0.00 0.00 95 1024.0
20210512133002 57 327 5.0 0.0 0.00 0.00 0.00 95 1023.9
20210512132504 57 355 5.0 0.0 0.00 0.00 0.00 95 1023.8
20210512132019 57 346 5.0 0.0 0.00 0.00 0.00 95 1023.8
20210512131525 57 324 4.0 0.0 0.00 0.00 0.00 95 1023.7
20210512131004 57 293 3.0 0.0 0.00 0.00 0.00 95 1023.7
20210512130504 57 331 3.0 0.0 0.00 0.00 0.00 95 1023.7
20210512130011 57 328 4.0 0.0 0.00 0.00 0.00 95 1023.6
20210512125604 57 13 5.0 0.0 0.00 0.00 0.00 95 1023.5
20210512124501 57 355 5.0 0.0 0.00 0.00 0.00 95 1023.5
20210512124008 57 314 5.0 0.0 0.00 0.00 0.00 95 1023.3
20210512123649 57 316 5.0 0.0 0.00 0.00 0.00 95 1023.3
20210512122005 57 18 4.0 0.0 0.00 0.00 0.00 95 1023.2
20210512121505 57 345 5.0 0.0 0.00 0.00 0.00 95 1023.1
20210512121007 57 325 6.0 0.0 0.00 0.00 0.00 95 1023.0
20210512120513 58 337 6.0 0.0 0.00 0.00 0.00 95 1022.7
20210512120016 58 314 6.0 0.0 0.00 0.00 0.00 95 1022.6
20210512115518 58 316 5.0 0.0 0.00 0.00 0.00 95 1022.4
20210512114510 58 335 4.0 0.0 0.00 0.00 0.00 95 1022.2
20210512114009 58 323 4.0 0.0 0.00 0.00 0.00 95 1022.2
20210512112003 58 349 4.0 0.0 0.00 0.00 0.00 94 1022.1
20210512111507 58 355 4.0 0.0 0.00 0.00 0.00 94 1022.1
20210512111006 58 5 5.0 0.0 0.00 0.00 0.00 94 1021.9
20210512110523 59 24 5.0 0.0 0.00 0.00 0.00 94 1022.0
20210512110012 59 342 5.0 0.0 0.00 0.00 0.00 94 1021.9
20210512105512 59 360 5.0 0.0 0.00 0.00 0.00 94 1021.9
20210512105013 59 360 4.0 0.0 0.00 0.00 0.00 94 1021.9
20210512103505 59 360 5.0 0.0 0.00 0.00 0.00 95 1021.5
20210512103005 59 313 4.0 0.0 0.00 0.00 0.00 94 1021.3
20210512102511 59 355 4.0 0.0 0.00 0.00 0.00 94 1021.2
20210512102017 59 339 4.0 0.0 0.00 0.00 0.00 94 1021.0
20210512101549 59 325 5.0 0.0 0.00 0.00 0.00 94 1020.9
20210512100511 59 329 3.0 0.0 0.00 0.00 0.00 94 1020.9
20210512100040 59 355 3.0 0.0 0.00 0.00 0.00 94 1020.8
20210512093506 59 347 4.0 0.0 0.00 0.00 0.00 94 1020.2
20210512093007 59 338 6.0 0.0 0.00 0.00 0.00 94 1020.1